Погода Великие Луки

Погода Великие Луки : погода сейчас, прогноз погоды и архив. Всё, что Вы хотите узнать о погоде Великие Луки!

Поиск расширенной информации на нашем сайте:

Другие новости

Новости СМИ2

Главная страница сайта

Новости сайта

03.07.2017

Напоминаем, что на нашем специализированном сайте Метеоцентр.Азия вы можете получить высокодетализированные автоматические прогнозы погоды по пунктам России, СНГ и мира в авиационном формате (включающие направление и скорость ветра, видимость, явления погоды, количество и форму облачности, нижнюю и верхнюю границу облачности).


Погода Великие Луки - сегодня

Время (UTC), дата Ветер
(°,м/с) 
Видим.   Явления Облачность Т
(°С)
Тd
(°С)
f(%) Тe
(°С)
Pmin
(гПа)
dP
(гПа)
Po
(мм)
O2
(г/м3)
Тmin Tmax R s Состояние
почвы
15 11.07.18 340 (С) 10 км    10/8 600 м кучево-дожд., верхняя 
[Cb cap|Ci fib]
+21.8 +14.9 65 +30  1017.1  -0.9  754  278           
21 11.07.18 тихо ()   4000 м  дымка  10/0 верхняя 
[Ci fib]
+14.4 +14.4 100 +22  1018.1  0.6  754  286           
03 12.07.18 тихо ()   0500 м  туман  ?/?  
+13.1 +13.1 100 +19  1017.8  0.1  754  287  +11.7         
09 12.07.18 160 (Ю) 10 км  {туман}  9/9 1000 м 
[Cu Sc]
+24.3 +16.5 62 +36  1016.2  -0.9  753  275           
21 12.07.18 тихо ()   10 км    3/3 1000 м 
[Sc]
+15.5 +15.5 100 +25  1014.5  752  283           
03 13.07.18 тихо ()   4000 м  дымка  6/6 1000 м 
[Sc]
+13.8 +13.8 100 +20  1013.5  -0.8  751  285  +12.9         
09 13.07.18 100 (В) 10 км    10/1 1000 м верхняя 
[Cu hum|Ci fib]
+27.1 +13.5 43 +33  1011.9  -0.7  750  272           
12 13.07.18 110 (В) 10 км    10/3 1000 м верхняя 
[Cu med, cong|Ci fib]
+28.9 +12.8 37 +34  1010.1  -1.7  749  270           
15 13.07.18 100 (В) 10 км    10/3 600 м кучево-дожд., верхняя 
[Cb cap|Ci fib]
+25.2 +14.3 51 +33  1009.5  -0.7  748  273           
21 13.07.18 тихо ()   10 км    10/10 600 м кучево-дожд. 
[Cb cap]
+16.6 +16.3 98 +28  1010.1  -0.2  748  281           
00 14.07.18 тихо ()   10 км    10/8 1000 м верхняя 
[Sc|Ci fib]
+15.5 +15.5 100 +25  1009.1  -1  748  282           
03 14.07.18 020 (С) 10 км    10/8 600 м кучево-дожд., верхняя 
[Cb cap|Ci fib]
+16.4 +16.4 100 +29  1009.1  748  281  +15.3         
09 14.07.18 060 (СВ) 10 км  гроза без осадков  10/6 600 м кучево-дожд., верхняя 
[Cb cap|Cs]
+24.5 +16.1 59 +35  1008.4  -0.3  747  273           
21 14.07.18 тихо ()   4000 м  дымка  10/0 верхняя 
[Ci ing]
+16.5 +16.5 100 +28  1008.3  0.6  747  280           
03 15.07.18 тихо ()   0500 м  туман  10/10 300 м 
[St]
+15.7 +15.7 100 +26  1008.8  0.5  747  281  +15.5       
06 15.07.18 020 (С) 10 км  дымка{туман}  10/10 600 м 
[Sc]
+18.6 +17.6 94 +34  1009.3  0.5  748  278  +15.5        влажная 
09 15.07.18 060 (СВ) 10 км    10/8 600 м верхняя 
[Cu med, cong|Ci fib]
+24.8 +17.6 64 +38  1009.4  0.3  748  272           
12 15.07.18 020 (С) 10 км    10/4 1000 м верхняя 
[Cu med, cong|Ci]
+26.6 +15.7 51 +37  1008.6  -0.6  748  271           
21 15.07.18 тихо ()   10 км    10/8 600 м верхняя 
[Sc|Ci]
+18 +18 100 +32  1010.7  0.6  749  279           
03 16.07.18 тихо ()   0500 м  туман  10/0 верхняя 
[Ci]
+15.9 +15.9 100 +26  1011.3  749  282  +15.6    0.0     
06 16.07.18 040 (СВ) 10 км  {туман}  10/0 верхняя 
[Ci fib]
+23.6 +18.7 74 +39  1010.9  749  273  +15.6        влажная 
09 16.07.18 030 (СВ) 10 км    10/6 1000 м верхняя 
[Cu med, cong|Ci fib]
+26.8 +18.5 60 +42  1010.1  -0.6  749  270           
21 16.07.18 070 (В) 10 км    8/8 1000 м 
[Sc]
+19.9 +17.6 87 +35  1009.6  0.1  748  277           
00 17.07.18 тихо ()   10 км    8/3 1000 м верхняя 
[Sc|Ci fib]
+18.2 +17.4 95 +31  1009.4  -0.3  748  279           
03 17.07.18 020 (С) 10 км    10/5 1000 м верхняя 
[Sc|Ci fib]
+17.9 +17.4 97 +32  1009.4  748  279  +16.5         
Время (UTC), дата Ветер
(°,м/с) 
Видим.   Явления Облачность Т
(°С)
Тd
(°С)
f(%) Тe
(°С)
Pmin
(гПа)
dP
(гПа)
Po
(мм)
O2
(г/м3)
Тmin Tmax R s Состояние
почвы

Для получения пояснительной информации подведите курсор к названию столбца.

ПОГОДА Великие Луки - архив

Всё, что Вы хотите узнать о погоде Великие Луки - удобно и подробно!

Выберите нужную дату (начиная с 1 января 2015* года) и нажмите кнопку "Найти".
Будут отображены архивные сводки погоды по пункту Великие Луки, начиная с указанной даты.


Отображать данные в формате CSV (для использования в таблицах Excel)


Внимание! Наш архив погоды предназначен исключительно для личного некоммерческого использования в познавательных целях. Если Вам необходимы официальные справки о состоянии погоды (для производственных, юридических, коммерческих и т.п. целей), обращайтесь в органы Росгидромета.

*Примечание: данная дата относится к архиву по метеостанциям СССР (Россия, СНГ, Балтия).
Архив по метеостанциям Зарубежной Европы и Азии (кроме Китая) хранится 10 дней, по другим регионам земного шара (Китай, Африка, Америка, Австралия, Океания) - 1 день.

Великие Луки - район местоположения метеостанции


Название, широта, долгота, высота метеостанции:
Великие Луки 56.3°ш. 30.6°д. 99 м над ур. моря [Российская Федерация]

Дополнительная информация

В oтличие oт бoльшинства пoгoдных сайтoв мы публикуем пoдрoбную метеoинфoрмацию в детальнoм прoфессиoнальнoм фoрмате.

Характеристики температуры и влажнoсти вoздуха измеряются на высoте 2 м в тени вдали oт зданий и деревьев.
Скoрoсть ветра измеряется на высoте 10 м (на урoвне рoста челoвека скoрoсть ветра ниже в 1.5-2 раза). Если метеoстанция нахoдится в гoрoде или в лесу, тo скoрoсть ветра занижена на 2-4 м/с пo сравнению с oткрытым местoм. Скoрoсть ветра над акватoриями крупных рек и oзёр, а также на вершинах хoлмoв на 2-5 м/с выше, чем в oбычных услoвиях.
Атмoсфернoе давление в разных тoчках местнoсти мoжет значительнo oтличаться oт давления на метеoстанции, в зависимoсти oт услoвий рельефа (при пoдъёме на 10 м давление пoнижается примернo на 1 мм рт.ст.).